Zurück zum Katalog

HULIANWANG DIGUI-127

AktivKommunikationLEO
NORAD 67067·PAYLOAD·🇨🇳 China

Gestartet Dec 11, 2025 von Wenchang Space Launch Site

Loading…

Nächste Überflüge (nächste 24 Stunden)

TLE

AktuellSource: Space-Track

Epoche: Sep 14, 2026, 20:29 UTC

1 67067U 25295J   26257.85389883 -.00000123  00000-0  14882-5 0  9998
2 67067  50.0008  63.5331 0000788  61.4453 298.6498 13.29324177 37430

Verfolge HULIANWANG DIGUI-127 in Echtzeit mit AllMySat

Download on the App Store